P/2001 H5 (NEAT) 

Epoch 2001 Jan. 11.0 TT = JDT 2451920.5  

T 2001 Jan. 28.69489 TT                                 Nakano

q   2.3966468            (2000.0)            P               Q

n   0.06719515     Peri.  224.87423     -0.96457632     +0.25321403

a   5.9920774      Node   329.56562     -0.18180336     -0.84130883

e   0.6000307      Incl.    8.39954     -0.19115456     -0.47757942

P  14.67

From 43 observations 2001 Mar. 20-June 26, mean residual 0".55.

Residuals in seconds of arc 

2001/                     010424 046  0.4-  0.3+    010512 360  0.6+  0.7-  

010320 704  0.4-  0.8-    010425 808  0.5+  1.8+    010513 402  0.1+  0.4+  

010320 704  0.3+  0.6-    010425 808  0.2-  1.9+    010513 402  0.7-  1.2+  

010320 704  0.6-  0.0     010425 926  1.4+  0.3-    010513 402  0.1+  0.1+  

010320 704  1.3+  0.7-    010425 926  0.0   0.3-    010514 428  0.8-  0.4+  

010320 704  0.3-  0.8+    010425 428  0.2+  0.5+    010514 428  0.4-  0.4-  

010424 644  0.5-  0.2+    010425 428  0.2+  0.1+    010519 360  0.0   1.0-  

010424 644  0.1-  0.0     010426 360  0.4+  0.1+    010519 360  0.4-  0.3-  

010424 644  0.0   0.0     010426 360  0.0   0.4-    010523 118  0.0   0.8-  

010424 046  0.4+  0.5-    010427 428  0.1-  0.1+    010523 118  0.4-  1.0-  

010424 046  0.7+  0.4-    010427 428  0.3-  0.0     010526 428  0.0   0.3+  

010424 046  0.2-  0.2-    010427 428  0.5-  0.1+    010526 428  0.5-  0.1-  

010424 046  0.2-  0.1+    010502 428  0.4-  0.1-    010626 413  0.8+  0.2+  

010424 046  0.0   0.3+    010502 428  0.4-  0.3-    010626 413  0.3+  0.2+  

010424 046  0.1-  0.1-    010512 360  0.8+  0.5-    



NAKANO

         **** Don't distribute anyone except personal use only ****

                (C) Copyright 2001 OAA/ComputingSection

write mail from CFAD0::NAKANO on 2001-07-03 00:46:31(JST).

 



    P/2001 H5 (NEAT) 

T 2001 Jan. 28.70536 TT                                 Nakano

q   2.3968486            (2000.0)            P               Q

n   0.06715113     Peri.  224.88144     -0.96454690     +0.25332529

a   5.9946959      Node   329.56501     -0.18189887     -0.84128750

e   0.6001718      Incl.    8.39968     -0.19121212     -0.47755800

P  14.68

From 41 observations 2001 Mar. 20-May 26.



NAKANO

         **** Don't distribute anyone except personal use only ****

                (C) Copyright 2001 OAA/ComputingSection

write mail from CFAD0::NAKANO on 2001-06-02 22:39:55(JST).

 



    P/2001 H5 (NEAT) 

T 2001 Jan. 28.89136 TT                                 Nakano

q   2.3975099            (2000.0)            P               Q

n   0.06729162     Peri.  224.96490     -0.96422224     +0.25455262

a   5.9863496      Node   329.55447     -0.18296402     -0.84106739

e   0.5995039      Incl.    8.39925     -0.19183233     -0.47729300

P  14.65

From 28 observations 2001 Mar. 20-May  2.



◎P/2001 H5の軌道と予報位置です



 久万の中村彰正氏によって,4月26日に観測されました.氏の CCD全光度は,

17.4等でした.



    P/2001 H5 (NEAT) 

T 2001 Jan. 28.91647 TT                                 Nakano

q   2.3975036            (2000.0)            P               Q

n   0.06732084     Peri.  224.97675     -0.96418532     +0.25469100

a   5.9846169      Node   329.55085     -0.18308428     -0.84104647

e   0.5993890      Incl.    8.39890     -0.19190314     -0.47725604

P  14.64

From 26 observations 2001 Mar. 20-Apr. 27.



Date/        TT  R.A.(2000) Decl.     Delta   r     Daily motion  Mag.  Moon Age

              h    h  m       。  ,                      ,  / PA 。  m1      。

2001 Apr. 30 14  14 39.52  -29 36.4   1.535  2.522     8.5 / 279  17.4   99  .48

     May   1 14  14 38.88  -29 35.0   1.536  2.525     8.5 / 280  17.5   85  .60

           2 14  14 38.24  -29 33.5   1.538  2.527     8.5 / 281  17.5   71  .71

           3 14  14 37.61  -29 31.9   1.539  2.530     8.5 / 282  17.5   58  .81

           4 14  14 36.97  -29 30.1   1.541  2.533     8.5 / 283  17.5   44  .89

           5 14  14 36.34  -29 28.1   1.544  2.535     8.4 / 284  17.5   32  .95

           6 14  14 35.72  -29 26.0   1.546  2.538     8.4 / 285  17.5   22  .99

           7 14  14 35.10  -29 23.8   1.549  2.541     8.3 / 286  17.5   17 1.00

           8 14  14 34.49  -29 21.5   1.552  2.544     8.3 / 287  17.5   22  .99

           9 14  14 33.88  -29 19.0   1.555  2.546     8.2 / 288  17.5   32  .95

          10 14  14 33.29  -29 16.4   1.558  2.549     8.1 / 290  17.5   43  .90

          11 14  14 32.71  -29 13.7   1.562  2.552     8.0 / 291  17.5   55  .84

          12 14  14 32.13  -29 10.8   1.566  2.555     7.9 / 292  17.5   66  .76

          13 14  14 31.57  -29 07.9   1.570  2.558     7.8 / 293  17.6   78  .67

          14 14  14 31.02  -29 04.9   1.575  2.561     7.7 / 294  17.6   89  .58

          15 14  14 30.49  -29 01.8   1.579  2.564     7.5 / 295  17.6  101  .48

          16 14  14 29.97  -28 58.6   1.584  2.567     7.4 / 296  17.6  112  .39

          17 14  14 29.46  -28 55.3   1.589  2.570     7.2 / 297  17.6  123  .30

          18 14  14 28.97  -28 52.0   1.595  2.573     7.1 / 299  17.6  135  .21

          19 14  14 28.50  -28 48.6   1.600  2.576     6.9 / 300  17.6  146  .14

          20 14  14 28.04  -28 45.1   1.606  2.579     6.7 / 301  17.6  156  .08

          21 14  14 27.61  -28 41.6   1.612  2.582     6.6 / 303  17.7  162  .03

          22 14  14 27.19  -28 38.0   1.619  2.585     6.4 / 304  17.7  160  .00

          23 14  14 26.79  -28 34.4   1.625  2.588     6.2 / 306  17.7  151  .00

          24 14  14 26.41  -28 30.8   1.632  2.591     6.0 / 308  17.7  139  .03

          25 14  14 26.05  -28 27.1   1.639  2.595     5.8 / 310  17.7  126  .08

          26 14  14 25.72  -28 23.4   1.646  2.598     5.6 / 312  17.7  112  .15

          27 14  14 25.40  -28 19.7   1.654  2.601     5.4 / 314  17.7   98  .24

          28 14  14 25.11  -28 16.0   1.662  2.604     5.1 / 316  17.8   85  .35

          29 14  14 24.84  -28 12.3   1.669  2.607     4.9 / 318  17.8   71  .46

          30 14  14 24.59  -28 08.6   1.678  2.611     4.7 / 321  17.8   58  .58

          31 14  14 24.37  -28 04.9   1.686  2.614     4.5 / 324  17.8   45  .68

     June  1 14  14 24.17  -28 01.3   1.694  2.617     4.3 / 327  17.8   32  .78

NAKANO

         **** Don't distribute anyone except personal use only ****

                (C) Copyright 2001 OAA/ComputingSection

write mail from CFAD0::NAKANO on 2001-04-30 01:36:41(JST).

 



戻ります。